WetterOnline ( https://www.wetteronline.de )

Wetter aktuell Stödtlen

Aktuelles Wetter: Feuchtwangen-Heilbronn (475m)

6-stündlich | Neueste Meldungen
Ortszeit Temperatur Wetter
Sa, 04.04. 14:00 11.6° C leicht bewölkt
Sa, 04.04. 8:00 -0.1° C wolkenlos
Sa, 04.04. 2:00 3.6° C bedeckt
Fr, 03.04. 20:00 7.3° C bewölkt
Fr, 03.04. 14:00 9.8° C bewölkt
Fr, 03.04. 8:00 -0.0° C wolkenlos
Fr, 03.04. 2:00 1.1° C fast wolkenlos
Do, 02.04. 20:00 8.0° C wolkenlos
Ortszeit Temperatur Wetter
Sa, 04.04. 15:00 12.2° C leicht bewölkt
Sa, 04.04. 14:50 12.2° C leicht bewölkt
Sa, 04.04. 14:40 11.9° C wolkenlos
Sa, 04.04. 14:30 11.8° C fast wolkenlos
Sa, 04.04. 14:20 11.8° C fast wolkenlos
Sa, 04.04. 14:10 11.9° C leicht bewölkt
Sa, 04.04. 14:00 11.6° C leicht bewölkt
Sa, 04.04. 13:30 11.2° C wolkenlos
Sa, 04.04. 13:00 10.7° C fast wolkenlos
Sa, 04.04. 12:30 10.4° C wolkenlos
Sa, 04.04. 12:00 10.0° C wolkenlos
Sa, 04.04. 11:30 9.5° C wolkenlos
Ortszeit Relative Feuchte Sichtweite
Sa, 04.04. 14:00 46% 35 km
Sa, 04.04. 8:00 90% 7 km
Sa, 04.04. 2:00 86% 22 km
Fr, 03.04. 20:00 62% 35 km
Fr, 03.04. 14:00 49% 55 km
Fr, 03.04. 8:00 78% 14 km
Fr, 03.04. 2:00 63% 35 km
Do, 02.04. 20:00 37% 35 km
Ortszeit Relative Feuchte Sichtweite
Sa, 04.04. 15:00 42% 35 km
Sa, 04.04. 14:50 42% -
Sa, 04.04. 14:40 42% -
Sa, 04.04. 14:30 44% 40 km
Sa, 04.04. 14:20 44% -
Sa, 04.04. 14:10 47% -
Sa, 04.04. 14:00 46% 35 km
Sa, 04.04. 13:30 45% 35 km
Sa, 04.04. 13:00 45% 35 km
Sa, 04.04. 12:30 51% 35 km
Sa, 04.04. 12:00 50% 30 km
Sa, 04.04. 11:30 55% 25 km
Ortszeit Niederschlagsmenge Niederschlagsart
Sa, 04.04. 14:00 0.0 l/m2 in 6 Std. -
Sa, 04.04. 8:00 0.0 l/m2 in 12 Std. -
Sa, 04.04. 2:00 0.0 l/m2 in 6 Std. -
Fr, 03.04. 20:00 0.0 l/m2 in 12 Std. -
Fr, 03.04. 14:00 0.0 l/m2 in 6 Std. -
Fr, 03.04. 8:00 0.0 l/m2 in 12 Std. -
Fr, 03.04. 2:00 0.0 l/m2 in 6 Std. -
Do, 02.04. 20:00 0.0 l/m2 in 12 Std. -
Ortszeit Niederschlagsmenge Niederschlagsart
Sa, 04.04. 15:00 0.0 l/m2 in 1 Std. -
Sa, 04.04. 14:50 keine Meldung -
Sa, 04.04. 14:40 keine Meldung -
Sa, 04.04. 14:30 0.0 l/m2 in 1 Std. -
Sa, 04.04. 14:20 keine Meldung -
Sa, 04.04. 14:10 keine Meldung -
Sa, 04.04. 14:00 0.0 l/m2 in 1 Std. -
Sa, 04.04. 13:30 0.0 l/m2 in 1 Std. -
Sa, 04.04. 13:00 0.0 l/m2 in 1 Std. -
Sa, 04.04. 12:30 0.0 l/m2 in 1 Std. -
Sa, 04.04. 12:00 0.0 l/m2 in 1 Std. -
Sa, 04.04. 11:30 0.0 l/m2 in 1 Std. -
Ortszeit Stärke Spitze Richtung
km/h Bft. km/h Grad Sektor
Sa, 04.04. 14:00 4 1 18 100° O
Sa, 04.04. 8:00 0 0 4 - -
Sa, 04.04. 2:00 2 1 9 220° SW
Fr, 03.04. 20:00 7 2 36 300° NW
Fr, 03.04. 14:00 17 3 31 300° NW
Fr, 03.04. 8:00 7 2 11 210° SW
Fr, 03.04. 2:00 4 1 18 280° W
Do, 02.04. 20:00 13 3 31 280° W
Ortszeit Stärke Spitze Richtung
km/h Bft. km/h Grad Sektor
Sa, 04.04. 15:00 7 2 22 70° O
Sa, 04.04. 14:50 7 2 - 70° O
Sa, 04.04. 14:40 7 2 - 360° N
Sa, 04.04. 14:30 11 2 22 90° O
Sa, 04.04. 14:20 11 2 - 90° O
Sa, 04.04. 14:10 11 2 - 100° O
Sa, 04.04. 14:00 4 1 14 100° O
Sa, 04.04. 13:30 7 2 14 360° N
Sa, 04.04. 13:00 6 1 17 330° NW
Sa, 04.04. 12:30 11 2 17 60° NO
Sa, 04.04. 12:00 6 1 11 40° NO
Sa, 04.04. 11:30 4 1 11 310° NW
Ortszeit Untergrenze Bedeckung Gattung
total tief tief mittel hoch
Sa, 04.04. 14:00 1350 m 4/8 4/8 - - -
Sa, 04.04. 8:00 - 0/8 0/8 - - -
Sa, 04.04. 2:00 1500 m 8/8 8/8 - - -
Fr, 03.04. 20:00 1800 m 7/8 7/8 - - -
Fr, 03.04. 14:00 1320 m 7/8 7/8 - - -
Fr, 03.04. 8:00 - 0/8 0/8 - - -
Fr, 03.04. 2:00 8400 m 2/8 0/8 - - -
Do, 02.04. 20:00 - 0/8 0/8 - - -
Ortszeit Bedeckungsgrad in Achtel und Wolkenuntergrenze
Sa, 04.04. 15:00 2(1500m)
Sa, 04.04. 14:50 2(1500m)
Sa, 04.04. 14:40 keine Wolken
Sa, 04.04. 14:30 1(1380m)
Sa, 04.04. 14:20 1(1380m)
Sa, 04.04. 14:10 4(1380m)
Sa, 04.04. 14:00 4(1350m)
Sa, 04.04. 13:30 keine Wolken
Sa, 04.04. 13:00 1(1230m)
Sa, 04.04. 12:30 keine Wolken
Sa, 04.04. 12:00 keine Wolken
Sa, 04.04. 11:30 keine Wolken
Ortszeit Luftdruck NN (hPa) Tendenz (hPa in 3 Std.)
Sa, 04.04. 14:00 1024 0,0
Sa, 04.04. 8:00 1025 + 1,3
Sa, 04.04. 2:00 1022 + 0,7
Fr, 03.04. 20:00 1019 + 1,3
Fr, 03.04. 14:00 1016 + 0,3
Fr, 03.04. 8:00 1017 + 1,5
Fr, 03.04. 2:00 1014 + 0,9
Do, 02.04. 20:00 1011 0,0
Ortszeit Luftdruck NN (hPa) Tendenz (hPa in 3 Std.)
Sa, 04.04. 15:00 1024 - 0,3
Sa, 04.04. 14:50 1024 keine Meldung
Sa, 04.04. 14:40 1024 keine Meldung
Sa, 04.04. 14:30 1024 - 0,2
Sa, 04.04. 14:20 1024 keine Meldung
Sa, 04.04. 14:10 1024 keine Meldung
Sa, 04.04. 14:00 1024 0,0
Sa, 04.04. 13:30 1024 + 0,1
Sa, 04.04. 13:00 1024 + 0,5
Sa, 04.04. 12:30 1024 + 0,8
Sa, 04.04. 12:00 1024 + 0,8
Sa, 04.04. 11:30 1024 + 1,0
Ortszeit Schneehöhe (cm)
Sa, 04.04. 14:00 0
Sa, 04.04. 8:00 0
Sa, 04.04. 2:00 0
Fr, 03.04. 20:00 0
Fr, 03.04. 14:00 0
Fr, 03.04. 8:00 0
Fr, 03.04. 2:00 0
Do, 02.04. 20:00 0
Ortszeit Schneehöhe (cm)
Sa, 04.04. 15:00 0
Sa, 04.04. 14:50 0
Sa, 04.04. 14:40 0
Sa, 04.04. 14:30 0
Sa, 04.04. 14:20 0
Sa, 04.04. 14:10 0
Sa, 04.04. 14:00 0
Sa, 04.04. 13:30 0
Sa, 04.04. 13:00 0
Sa, 04.04. 12:30 0
Sa, 04.04. 12:00 0
Sa, 04.04. 11:30 0
Link zu dieser Seite / Seite empfehlen

Das Wetter in ...